Regional Weather Roundup
Issued by NWS Little Rock, AR

Home | Current Version | Previous Version | Graphics & Text | Print | Product List | Glossary On
Versions: 1 2 3 4 5 6 7 8 9 10 11 12 13 14 15 16 17 18 19 20 21 22 23 24 25 26 27 28 29 30 31 32 33 34 35 36 37 38 39 40 41 42 43 44 45 46 47 48 49 50
159
ASUS44 KLZK 181815
RWRLZK

WEATHER ROUNDUP FOR ARKANSAS
NATIONAL WEATHER SERVICE LITTLE ROCK AR
100 PM CDT WED APR 18 2018

NOTE: "FAIR" INDICATES FEW OR NO CLOUDS BELOW 12,000 FEET WITH NO
SIGNIFICANT WEATHER AND/OR OBSTRUCTIONS TO VISIBILITY.

ARZ001-003-010-029-181900-
NORTHWEST ARKANSAS

CITY           SKY/WX    TMP DP  RH WIND       PRES   REMARKS
FAYETTEVILLE   SUNNY     66  41  40 W15G28    29.99R
6HR MIN TEMP:  60; 6HR MAX TEMP:  66;

FORT SMITH     SUNNY     72  43  35 W20G29    29.98R
6HR MIN TEMP:  66; 6HR MAX TEMP:  72;

HARRISON       SUNNY     67  39  35 NW15G24   29.93R
6HR MIN TEMP:  62; 6HR MAX TEMP:  67;

BENTONVILLE    MOSUNNY   62  42  47 NW17G23   30.01R
6HR MIN TEMP:  58; 6HR MAX TEMP:  62;

ROGERS         PTSUNNY   61  41  47 W21G30    30.00R
6HR MIN TEMP:  58; 6HR MAX TEMP:  61;

SILOAM SPGS    SUNNY     63  43  48 W21G28    30.01R
6HR MIN TEMP:  57; 6HR MAX TEMP:  64;

HIGHFILL       PTSUNNY   64  42  44 NW17G23   30.00R
SPRINGDALE     MOSUNNY   63  43  48 NW17G29   30.00R
$$

ARZ004-005-016-181900-
NORTH CENTRAL ARKANSAS

CITY           SKY/WX    TMP DP  RH WIND       PRES   REMARKS
BATESVILLE     SUNNY     79  43  27 VRB7      29.84R
6HR MIN TEMP:  64; 6HR MAX TEMP:  79;

FLIPPIN        SUNNY     70  41  34 NW16G22   29.90R
6HR MIN TEMP:  67; 6HR MAX TEMP:  70;

MTN HOME       SUNNY     68  40  35 NW12G23   29.89R
6HR MIN TEMP:  65; 6HR MAX TEMP:  69;

$$

ARZ040-041-181900-
WEST CENTRAL ARKANSAS

CITY           SKY/WX    TMP DP  RH WIND       PRES   REMARKS
MENA           SUNNY     73  43  33 W16G22    29.99S
MOUNT IDA      SUNNY     75  40  28 NW8G20    29.94R
6HR MIN TEMP:  66; 6HR MAX TEMP:  76;

$$

ARZ009-017-025-026-028-181900-
NORTHEAST ARKANSAS

CITY           SKY/WX    TMP DP  RH WIND       PRES   REMARKS
CORNING        FAIR      77  48  36 W23G31    29.78R
JONESBORO      FAIR      77  64  64 SW21G28   29.80S
6HR MIN TEMP:  61; 6HR MAX TEMP:  77;

NEWPORT        FAIR      82  50  32 W16       29.82S
6HR MIN TEMP:  61; 6HR MAX TEMP:  82;

WALNUT RIDGE   FAIR      79  43  27 W18G24    29.81R
6HR MIN TEMP:  60; 6HR MAX TEMP:  80;

BLYTHEVILLE    FAIR      77  58  51 SW14G30   29.80F
6HR MIN TEMP:  61; 6HR MAX TEMP:  78;

NW BLYTHEVILLE MOSUNNY   79  61  53 SW21G32   29.80F
$$

ARZ022-023-033-042-044-181900-
CENTRAL ARKANSAS

CITY           SKY/WX    TMP DP  RH WIND       PRES   REMARKS
LITTLE ROCK    MOSUNNY   80  58  46 W15G21    29.89R
6HR MIN TEMP:  62; 6HR MAX TEMP:  80;

N LITTLE ROCK    N/A     76  52  41 W7        29.86R
6HR MIN TEMP:  61; 6HR MAX TEMP:  77;

JACKSONVILLE   SUNNY     80  48  32 W18G26    29.88R
6HR MIN TEMP:  64; 6HR MAX TEMP:  80; 6HR PCP: TRACE;

CONWAY           N/A     77  43  29 W14G24    29.89R
SEARCY         PTSUNNY   80  55  42 W13G22    29.86R
6HR MIN TEMP:  64; 6HR MAX TEMP:  80;

HOT SPRINGS    SUNNY     78  41  26 NW12G21   29.94R
6HR MIN TEMP:  64; 6HR MAX TEMP:  79;

RUSSELLVILLE   SUNNY     74  40  29 W18G26    29.92R
6HR MIN TEMP:  67; 6HR MAX TEMP:  74;

CLINTON        FAIR      79  34  19 SW12G17   29.86S
$$

ARZ036-181900-
EAST ARKANSAS

CITY           SKY/WX    TMP DP  RH WIND       PRES   REMARKS
WEST MEMPHIS   FAIR      76  62  62 W14G22    29.85S
6HR MIN TEMP:  61; 6HR MAX TEMP:  76;

$$

ARZ050-053-066-070-073-181900-
SOUTHWEST ARKANSAS

CITY           SKY/WX    TMP DP  RH WIND       PRES   REMARKS
ARKADELPHIA    FAIR      78  59  51 W8G21     29.94S
6HR MIN TEMP:  59; 6HR MAX TEMP:  78;

CAMDEN         PTSUNNY   77  59  53 VRB7G15   29.95R
TEXARKANA      PTSUNNY   76  59  55 W13G20    29.97S
6HR MIN TEMP:  63; 6HR MAX TEMP:  77;

EL DORADO      LGT RAIN  71  64  78 SW9       29.98R
6HR MIN TEMP:  63; 6HR MAX TEMP:  72; 6HR PCP: TRACE;

DE QUEEN       SUNNY     77  46  33 NW8       29.96R
6HR MIN TEMP:  60; 6HR MAX TEMP:  77;

$$

ARZ056-057-069-181900-
SOUTHEAST ARKANSAS

CITY           SKY/WX    TMP DP  RH WIND       PRES   REMARKS
PINE BLUFF     FAIR      77  59  53 W15G22    29.92S
6HR MIN TEMP:  62; 6HR MAX TEMP:  77;

STUTTGART      FAIR      77  60  55 SW17      29.90R
6HR MIN TEMP:  61; 6HR MAX TEMP:  77;

MONTICELLO     CLOUDY    72  61  68 SW9G21    29.95R
6HR MIN TEMP:  63; 6HR MAX TEMP:  72;


$$






USA.gov is the U.S. government's official web portal to all federal, state and local government web resources and services.